H-1 R/B

Satellite information

Favourite Embed

Satellite Type and Status

ROCKET BODYIN ORBIT

Key statistics

Satellite H-1 R/B at a glance.

Uptime

13049

Days in orbit

Revolutions

≈ 13.0

Per day

Orbit

SSO

Sun Synchronous Orbit

Inclination

99.0

Latest

Satellite identification and parameters

Extended collection of information and parameters for H-1 R/B.

Object identification

Identified? True

Debris? False

Object name: H-1 R/B

International designator: 1990-013D

Object number (NORAD): 20491

Object ID (CCSDS): 20491

Country: JAPAN (JPN)

Current information (Y/N): Y

RCS size: LARGE

Orbital parameters

Period: 110.453 minutes

Inclination: 99.0315 deg

SMA: 7625.664 km

Apoapsis: 1604.292 km

Periapsis: 890.767 km

RAAN: 273.5482 deg

Eccentricy: 0.04678442

Argument of periapsis: 341.2945 deg

Mean anomaly: 17.1462 deg

Mean motion: 13.03725745 rev/day

Mean motion (dot): -0.00000477 rev/day2

B* drag term: -0.00082391942 1/REarth

Two-line elements (TLE)

Creation date: Oct. 28, 2025, 7:11 p.m.

Reference frame: TEME

Reference center: EARTH

Epoch: Oct. 28, 2025, 11:35 a.m. UTC

TLE line 0: 0 H-1 R/B

TLE line 1: 1 20491U 90013D 25301.48266910 -.00000477 00000-0 -82392-3 0 9993

TLE line 2: 2 20491 99.0315 273.5482 0467844 341.2945 17.1462 13.03725745698839

Live tracking on map

Real-time ground track for satellite H-1 R/B.

In-orbit conjunctions

A list of the most updated potential collisions computed for object H-1 R/B.

Target Orbit TCA Probability of collision Miss distance Type
COSMOS 1753 LEO 2025-07-24 08:14:07 0.005541661 30.0 (m) PAYLOAD
FENGYUN 1C DEB SSO 2025-04-08 19:44:53 0.0001727498 485.0 (m) DEBRIS

Associated space launch

Japanese Earth observation satellite

H-1 R/B was lifted into orbit during the mission ‘H-1 | Momo 1b’, on board a H-1 space rocket.

The launch took place on Feb. 7, 1990, 1:33 a.m. from Osaki Launch Complex.

For more information about the launch, click the button.

Launch to space H-1 | Momo 1b
H-1 | Momo 1b

Agency: N/A

Status: Launch Successful

Launch date: Feb. 7, 1990, 1:33 a.m. UTC

Rocket: H-1

Launch pad: Osaki Launch Complex

Location: Tanegashima Space Center, Japan

...

Latest news about this satellite

There are no fresh news available about this satellite. Check back as we update our databases every day.


Newsletter sign-up

Weekly statistics, charts and insights to help you stay on top of the space industry.